FW1697 Weather Reports


Display with metric or nautical units.
time (UTC)temp
F
wind
direction
speed
MPH
gust
MPH
rain 1hr
in
rain 24hr
in
rain mn
in
humidity
%
barometer
mb
20260508090706 54 205 6.0 10.0 0.00 0.00 0.00 80 1016.7
20260508090206 53 193 5.0 10.0 0.00 0.00 0.00 80 1016.7
20260508085206 53 197 6.0 8.0 0.00 0.00 0.00 82 1016.7
20260508084706 53 214 5.0 9.0 0.00 0.00 0.00 82 1016.7
20260508084206 52 223 6.0 7.0 0.00 0.00 0.00 82 1016.7
20260508083707 52 204 6.0 8.0 0.00 0.00 0.00 83 1016.7
20260508083206 52 207 6.0 8.0 0.00 0.00 0.00 84 1016.6
20260508082706 52 189 6.0 8.0 0.00 0.00 0.00 84 1016.6
20260508082205 51 208 6.0 9.0 0.00 0.00 0.00 84 1016.6
20260508081706 51 200 5.0 10.0 0.00 0.00 0.00 85 1016.6
20260508081205 51 191 5.0 10.0 0.00 0.00 0.00 86 1016.5
20260508080706 51 205 7.0 10.0 0.00 0.00 0.00 87 1016.5
20260508075706 50 223 6.0 9.0 0.00 0.00 0.00 88 1016.4
20260508075206 49 218 7.0 13.0 0.00 0.00 0.00 89 1016.4
20260508074706 49 211 7.0 13.0 0.00 0.00 0.00 89 1016.4
20260508074206 49 240 8.0 13.0 0.00 0.00 0.00 89 1016.3
20260508073206 49 236 8.0 12.0 0.00 0.00 0.00 89 1016.3
20260508072706 48 222 8.0 12.0 0.00 0.00 0.00 90 1016.3
20260508072206 48 211 9.0 12.0 0.00 0.00 0.00 90 1016.2
20260508071706 48 214 8.0 14.0 0.00 0.00 0.00 90 1016.2
20260508070706 47 219 8.0 13.0 0.00 0.00 0.00 90 1016.1
20260508070205 47 214 10.0 15.0 0.00 0.00 0.00 90 1016.1
20260508065706 47 222 8.0 13.0 0.00 0.00 0.00 90 1016.1
20260508065207 47 213 9.0 14.0 0.00 0.00 0.00 90 1016.1
20260508064706 47 218 7.0 12.0 0.00 0.00 0.00 90 1016.0
20260508063706 46 218 8.0 12.0 0.00 0.00 0.00 91 1016.0
20260508063206 46 217 5.0 9.0 0.00 0.00 0.00 91 1016.0
20260508062706 46 214 6.0 10.0 0.00 0.00 0.00 91 1015.9
20260508062206 46 237 7.0 12.0 0.00 0.00 0.00 91 1015.8
20260508060707 46 243 6.0 10.0 0.00 0.00 0.00 91 1015.6
20260508060206 45 232 7.0 12.0 0.00 0.00 0.00 91 1015.6
20260508055707 45 234 6.0 9.0 0.00 0.00 0.00 91 1015.6
20260508055208 45 240 6.0 10.0 0.00 0.00 0.00 91 1015.5
20260508054706 45 244 6.0 8.0 0.00 0.00 0.00 91 1015.6
20260508054206 45 228 7.0 10.0 0.00 0.00 0.00 91 1015.5
20260508053707 45 237 8.0 15.0 0.00 0.00 0.00 91 1015.5
20260508052705 45 250 9.0 15.0 0.00 0.00 0.00 91 1015.4
20260508052206 45 235 7.0 10.0 0.00 0.00 0.00 91 1015.4
20260508051706 45 236 8.0 12.0 0.00 0.00 0.00 91 1015.4
20260508051205 45 236 8.0 12.0 0.00 0.00 0.00 91 1015.4
20260508045705 44 235 6.0 12.0 0.00 0.00 0.00 91 1015.4
20260508045205 44 241 8.0 12.0 0.00 0.00 0.00 90 1015.4
20260508044705 44 239 9.0 13.0 0.00 0.00 0.00 90 1015.3
20260508044206 44 231 9.0 14.0 0.00 0.00 0.00 91 1015.3
20260508043205 44 233 8.0 12.0 0.00 0.00 0.00 91 1015.2
20260508042705 44 232 6.0 13.0 0.00 0.00 0.00 91 1015.2
20260508042205 44 235 5.0 12.0 0.00 0.00 0.00 91 1015.2
20260508041706 44 242 7.0 14.0 0.00 0.00 0.00 91 1015.2
20260508041205 44 222 8.0 12.0 0.00 0.00 0.00 91 1015.3
20260508040705 44 237 8.0 12.0 0.00 0.00 0.00 91 1015.2
20260508040206 44 221 7.0 10.0 0.00 0.00 0.00 90 1015.2
20260508035705 44 231 6.0 9.0 0.00 0.00 0.00 91 1015.2
20260508035206 44 225 5.0 9.0 0.00 0.00 0.00 90 1015.1
20260508034705 44 230 5.0 9.0 0.00 0.00 0.00 90 1015.1
20260508034206 44 227 5.0 9.0 0.00 0.00 0.00 90 1015.1
20260508033705 45 237 5.0 8.0 0.00 0.00 0.00 90 1015.1
20260508033206 45 233 6.0 9.0 0.00 0.00 0.00 90 1015.1
20260508032706 45 233 7.0 12.0 0.00 0.00 0.00 90 1015.1
20260508032205 45 226 8.0 12.0 0.00 0.00 0.00 90 1015.2
20260508031706 45 222 8.0 13.0 0.00 0.00 0.00 90 1015.2
20260508031205 45 254 7.0 13.0 0.00 0.00 0.00 90 1015.1
20260508030705 45 246 8.0 13.0 0.00 0.00 0.00 90 1015.0
20260508030206 45 255 7.0 15.0 0.00 0.00 0.00 90 1015.0
20260508025705 45 257 7.0 12.0 0.00 0.00 0.00 90 1015.0
20260508025206 45 245 6.0 12.0 0.00 0.00 0.00 90 1015.0
20260508023705 46 247 6.0 13.0 0.00 0.00 0.00 90 1015.0
20260508023206 46 255 7.0 9.0 0.00 0.00 0.00 90 1015.0
20260508022705 46 236 7.0 12.0 0.00 0.00 0.00 90 1015.0
20260508022205 46 223 7.0 12.0 0.00 0.00 0.00 90 1015.1
20260508021706 46 242 5.0 10.0 0.00 0.00 0.00 90 1015.1
20260508021205 46 222 5.0 10.0 0.00 0.00 0.00 90 1015.1
20260508020705 46 221 6.0 10.0 0.00 0.00 0.00 90 1015.0
20260508020205 46 219 6.0 8.0 0.00 0.00 0.00 90 1015.1
20260508015706 46 223 7.0 10.0 0.00 0.00 0.00 90 1015.0
20260508015206 46 228 7.0 10.0 0.00 0.00 0.00 89 1015.1
20260508014705 46 233 6.0 10.0 0.00 0.00 0.00 89 1015.1
20260508014205 46 223 5.0 8.0 0.00 0.00 0.00 89 1015.1
20260508013705 46 230 5.0 8.0 0.00 0.00 0.00 89 1015.1
20260508013205 46 221 7.0 13.0 0.00 0.00 0.00 89 1015.1
20260508012705 46 226 6.0 10.0 0.00 0.00 0.00 89 1015.1
20260508012206 46 226 5.0 8.0 0.00 0.00 0.00 89 1015.1
20260508011706 46 203 5.0 8.0 0.00 0.00 0.00 89 1015.0
20260508011205 46 214 5.0 8.0 0.00 0.00 0.00 89 1015.1
20260508010705 46 207 6.0 10.0 0.00 0.00 0.00 89 1015.1
20260508010205 46 210 5.0 10.0 0.00 0.00 0.00 90 1015.2
20260508005706 46 209 5.0 10.0 0.00 0.00 0.00 90 1015.2
20260508004705 46 188 7.0 10.0 0.00 0.00 0.00 90 1015.3
20260508004205 46 196 6.0 10.0 0.00 0.00 0.00 90 1015.3
20260508003706 46 196 5.0 7.0 0.00 0.00 0.00 90 1015.3
20260508003205 46 199 5.0 7.0 0.00 0.00 0.00 90 1015.4
20260508002705 46 199 5.0 6.0 0.00 0.00 0.00 90 1015.4
20260508002205 46 200 4.0 6.0 0.00 0.00 0.00 89 1015.5
20260508001705 46 219 5.0 10.0 0.00 0.00 0.00 89 1015.5
20260508001206 46 222 6.0 9.0 0.00 0.00 0.00 89 1015.5
20260508000705 46 218 7.0 13.0 0.00 0.00 0.00 89 1015.5
20260507235205 46 211 7.0 10.0 0.00 0.00 0.00 89 1015.5
20260507234705 46 197 7.0 12.0 0.00 0.00 0.00 88 1015.4
20260507234205 46 199 7.0 12.0 0.00 0.00 0.00 88 1015.4
20260507233705 46 208 7.0 12.0 0.00 0.00 0.00 88 1015.3
20260507233205 46 207 8.0 13.0 0.00 0.00 0.00 87 1015.3
20260507232705 46 207 7.0 12.0 0.00 0.00 0.00 87 1015.3
20260507231705 46 202 8.0 14.0 0.00 0.00 0.00 87 1015.3
20260507231206 46 200 10.0 15.0 0.00 0.00 0.00 87 1015.3
20260507230712 46 200 10.0 15.0 0.00 0.00 0.00 87 1015.3
20260507230205 46 191 10.0 14.0 0.00 0.00 0.00 86 1015.3
20260507225705 46 190 10.0 15.0 0.00 0.00 0.00 86 1015.3
20260507225205 46 190 10.0 16.0 0.00 0.00 0.00 86 1015.3
20260507224705 46 203 10.0 18.0 0.00 0.00 0.00 86 1015.3
20260507224205 46 202 12.0 18.0 0.00 0.00 0.00 86 1015.2
20260507223705 46 201 10.0 18.0 0.00 0.00 0.00 86 1015.3
20260507223205 46 209 9.0 15.0 0.00 0.00 0.00 86 1015.2
20260507222705 46 210 12.0 18.0 0.00 0.00 0.00 86 1015.2
20260507221705 47 192 12.0 18.0 0.00 0.00 0.00 85 1015.2
20260507221205 47 197 13.0 18.0 0.00 0.00 0.00 85 1015.2
20260507220705 47 202 12.0 22.0 0.00 0.00 0.00 85 1015.3
20260507220206 47 196 13.0 20.0 0.00 0.00 0.00 85 1015.2
20260507214205 47 182 12.0 16.0 0.00 0.00 0.00 84 1015.3
20260507213706 47 184 13.0 18.0 0.00 0.00 0.00 84 1015.3
20260507213206 47 194 12.0 17.0 0.00 0.00 0.00 84 1015.3
20260507212706 47 202 13.0 17.0 0.00 0.00 0.00 83 1015.3
20260507211206 48 175 13.0 20.0 0.00 0.00 0.00 82 1015.2
20260507210706 48 174 13.0 20.0 0.00 0.00 0.00 83 1015.2
20260507210206 47 173 13.0 18.0 0.00 0.00 0.00 83 1015.2
20260507205707 47 183 13.0 18.0 0.00 0.00 0.00 83 1015.2
20260507205207 47 176 13.0 20.0 0.00 0.00 0.00 83 1015.1
20260507204707 47 178 13.0 20.0 0.00 0.00 0.00 83 1015.1
20260507204208 47 167 9.0 15.0 0.00 0.00 0.00 83 1015.1
20260507203708 47 159 9.0 17.0 0.00 0.00 0.00 83 1015.1
20260507202707 48 162 10.0 17.0 0.00 0.00 0.00 82 1015.0
20260507202207 48 171 11.0 15.0 0.00 0.00 0.00 82 1015.1
20260507201708 48 171 9.0 15.0 0.00 0.00 0.00 82 1015.0
20260507200708 48 159 8.0 13.0 0.00 0.00 0.00 82 1014.9
20260507195207 49 160 10.0 15.0 0.00 0.00 0.00 81 1014.8
20260507194708 49 173 7.0 18.0 0.00 0.00 0.00 81 1014.7
20260507194206 49 166 9.0 18.0 0.00 0.00 0.00 81 1014.6
20260507193707 49 174 9.0 17.0 0.00 0.00 0.00 81 1014.6
20260507193207 49 173 7.0 17.0 0.00 0.00 0.00 81 1014.6
20260507192708 49 163 7.0 16.0 0.00 0.00 0.00 81 1014.6
20260507191707 49 164 6.0 16.0 0.00 0.00 0.00 81 1014.6
20260507185707 50 161 7.0 12.0 0.00 0.00 0.00 80 1014.5
20260507185207 50 160 6.0 12.0 0.00 0.00 0.00 79 1014.4
20260507184706 50 156 6.0 15.0 0.00 0.00 0.00 79 1014.4
20260507184206 51 168 9.0 17.0 0.00 0.00 0.00 79 1014.4
20260507183706 51 164 7.0 13.0 0.00 0.00 0.00 79 1014.4
20260507183208 51 153 6.0 10.0 0.00 0.00 0.00 79 1014.3
20260507182207 51 158 5.0 13.0 0.00 0.00 0.00 78 1014.3
20260507181707 51 154 5.0 8.0 0.00 0.00 0.00 77 1014.3
20260507181207 51 158 6.0 10.0 0.00 0.00 0.00 76 1014.3
20260507180707 51 163 6.0 14.0 0.00 0.00 0.00 75 1014.3
20260507175708 52 180 8.0 13.0 0.00 0.00 0.00 73 1014.4
20260507175206 52 171 7.0 12.0 0.00 0.00 0.00 72 1014.5
20260507174708 52 168 5.0 10.0 0.00 0.00 0.00 73 1014.5
20260507174208 52 161 3.0 8.0 0.00 0.00 0.00 73 1014.5
20260507172707 53 170 6.0 12.0 0.00 0.00 0.00 67 1014.5
20260507172207 53 186 8.0 12.0 0.00 0.00 0.00 66 1014.5
20260507171707 53 186 6.0 12.0 0.00 0.00 0.00 66 1014.5
20260507171207 53 195 8.0 12.0 0.00 0.00 0.00 65 1014.6
20260507165707 53 198 6.0 12.0 0.00 0.00 0.00 66 1014.7
20260507165208 53 206 6.0 13.0 0.00 0.00 0.00 66 1014.7
20260507164708 53 192 6.0 12.0 0.00 0.00 0.00 66 1014.8
20260507164206 53 198 9.0 12.0 0.00 0.00 0.00 66 1014.8
20260507163707 53 200 7.0 12.0 0.00 0.00 0.00 66 1014.7
20260507163208 53 209 7.0 10.0 0.00 0.00 0.00 66 1014.7
20260507162707 53 194 5.0 9.0 0.00 0.00 0.00 66 1014.7
20260507162208 53 210 7.0 12.0 0.00 0.00 0.00 65 1014.7
20260507161707 53 197 7.0 12.0 0.00 0.00 0.00 65 1014.7
20260507161206 53 193 5.0 10.0 0.00 0.00 0.00 67 1014.7
20260507160707 53 201 6.0 10.0 0.00 0.00 0.00 66 1014.8
20260507160207 53 202 7.0 17.0 0.00 0.00 0.00 66 1014.8
20260507154707 53 197 9.0 15.0 0.00 0.00 0.00 66 1014.8
20260507153707 52 191 6.0 12.0 0.00 0.00 0.00 67 1014.9
20260507153207 52 207 9.0 13.0 0.00 0.00 0.00 67 1014.9
20260507152706 52 191 10.0 13.0 0.00 0.00 0.00 67 1014.9
20260507152207 52 208 8.0 12.0 0.00 0.00 0.00 68 1015.0
20260507151706 52 195 8.0 12.0 0.00 0.00 0.00 68 1014.9
20260507151207 52 207 10.0 15.0 0.00 0.00 0.00 69 1015.0
20260507150708 51 214 7.0 15.0 0.00 0.00 0.00 70 1015.0
20260507150207 51 191 10.0 15.0 0.00 0.00 0.00 69 1015.0
20260507145707 51 219 8.0 16.0 0.00 0.00 0.00 68 1015.0
20260507145206 51 199 14.0 17.0 0.00 0.00 0.00 68 1014.9
20260507144706 51 201 7.0 14.0 0.00 0.00 0.00 70 1014.9
20260507143706 51 209 10.0 17.0 0.00 0.00 0.00 70 1014.9
20260507143206 51 203 13.0 22.0 0.00 0.00 0.00 69 1015.0
20260507142706 51 199 10.0 16.0 0.00 0.00 0.00 70 1015.0
20260507142207 51 212 10.0 15.0 0.00 0.00 0.00 69 1015.0
20260507141707 51 204 9.0 14.0 0.00 0.00 0.00 70 1015.1
20260507141207 51 206 12.0 18.0 0.00 0.00 0.00 69 1015.1
20260507140707 51 229 10.0 18.0 0.00 0.00 0.00 68 1015.1
20260507140206 51 212 10.0 15.0 0.00 0.00 0.00 69 1015.2
20260507135707 51 200 12.0 18.0 0.00 0.00 0.00 69 1015.3
20260507135207 51 200 11.0 17.0 0.00 0.00 0.00 70 1015.3
20260507134207 51 219 7.0 16.0 0.00 0.00 0.00 69 1015.3
20260507133707 51 224 10.0 21.0 0.00 0.00 0.00 68 1015.3
20260507133207 51 204 9.0 20.0 0.00 0.00 0.00 70 1015.3
20260507132707 51 221 10.0 22.0 0.00 0.00 0.00 68 1015.3
20260507131207 52 202 11.0 16.0 0.00 0.00 0.00 69 1015.3
20260507130707 52 225 13.0 20.0 0.00 0.00 0.00 69 1015.3
20260507130207 52 209 11.0 18.0 0.00 0.00 0.00 70 1015.3
20260507125707 52 209 12.0 20.0 0.00 0.00 0.00 69 1015.3
20260507125207 52 190 11.0 20.0 0.00 0.00 0.00 70 1015.3
20260507124707 52 190 14.0 20.0 0.00 0.00 0.00 69 1015.3
20260507124207 52 206 10.0 17.0 0.00 0.00 0.00 71 1015.2
20260507123707 52 196 14.0 22.0 0.00 0.00 0.00 70 1015.2
20260507123207 52 206 13.0 21.0 0.00 0.00 0.00 71 1015.2
20260507122707 52 207 14.0 24.0 0.00 0.00 0.00 70 1015.2
20260507122207 52 226 12.0 20.0 0.00 0.00 0.00 70 1015.2
20260507121707 52 200 12.0 20.0 0.00 0.00 0.00 71 1015.2
20260507120707 52 203 12.0 21.0 0.00 0.00 0.00 72 1015.2
20260507120207 52 188 16.0 21.0 0.00 0.00 0.00 74 1015.3
20260507115707 51 204 11.0 16.0 0.00 0.00 0.00 74 1015.3
20260507115207 51 203 13.0 26.0 0.00 0.00 0.00 72 1015.3
20260507114707 51 201 14.0 24.0 0.00 0.00 0.00 73 1015.2
20260507114206 50 207 13.0 21.0 0.00 0.00 0.00 73 1015.2
20260507113707 50 194 15.0 22.0 0.00 0.00 0.00 74 1015.3
20260507113207 51 195 13.0 20.0 0.00 0.00 0.00 74 1015.3
20260507112707 51 190 14.0 22.0 0.00 0.00 0.00 75 1015.4
20260507112207 50 196 11.0 18.0 0.00 0.00 0.00 75 1015.4
20260507111707 50 205 9.0 16.0 0.00 0.00 0.00 76 1015.5
20260507111206 49 217 10.0 17.0 0.00 0.00 0.00 78 1015.6
20260507110707 49 222 12.0 20.0 0.00 0.00 0.00 78 1015.6
20260507110207 49 198 13.0 20.0 0.00 0.00 0.00 77 1015.6
20260507105707 49 213 11.0 20.0 0.00 0.00 0.00 79 1015.6
20260507105207 48 208 9.0 15.0 0.00 0.00 0.00 79 1015.6
20260507104706 48 201 10.0 17.0 0.00 0.00 0.00 79 1015.6
20260507104207 48 196 10.0 16.0 0.00 0.00 0.00 80 1015.7
20260507103207 47 201 12.0 17.0 0.00 0.00 0.00 79 1015.7
20260507102207 47 196 11.0 17.0 0.00 0.00 0.00 80 1015.8
20260507101707 47 192 8.0 16.0 0.00 0.00 0.00 80 1015.8
20260507101206 47 203 11.0 16.0 0.00 0.00 0.00 80 1015.9
20260507100707 47 204 12.0 21.0 0.00 0.00 0.00 79 1015.8
20260507100207 47 191 11.0 17.0 0.00 0.00 0.00 80 1015.8
20260507095207 47 192 13.0 18.0 0.00 0.00 0.00 80 1015.8
20260507094207 47 200 14.0 22.0 0.00 0.00 0.00 81 1015.7
20260507093707 47 206 9.0 17.0 0.00 0.00 0.00 81 1015.8
20260507093207 47 212 12.0 18.0 0.00 0.00 0.00 82 1015.8
20260507092707 46 208 14.0 24.0 0.00 0.00 0.00 81 1015.7
20260507092206 46 200 11.0 22.0 0.00 0.00 0.00 83 1015.7
20260507091707 46 196 12.0 22.0 0.00 0.00 0.00 82 1015.8
20260507091207 46 207 12.0 24.0 0.00 0.00 0.00 82 1015.8